HTMP

Mpanda Airport

Airport
ICAO code
HTMP
IATA Code
NPY
Summary
ICAO Region
AFI
ICAO Territory
Location

Mpanda, Katavi Region

Serving
Katavi Region
Elevation
3565 ft
Coordinates
6° 21' 20" S , 31° 4' 50" E
KCC
Metar
HTMP 241400Z 00000KT 9999 FEW026 30/14 Q1018

Mpanda Airport is an airport in western Tanzania serving the town of Mpanda and the surrounding Katavi Region.

Climatology

Tropical Savanna climate (Köppen climate classification Aw)

Airport map

Aerial View

SKYbrary Partners:

Safety knowledge contributed by: